Temperature
6 8 9 11 12 13 14 13 13 13 13 13 13 14 15 15 15 16 16 17 16 16 15 16 16 16 16 16 16 16 16 16 15 15 15 15 15 15 15 15 15 15 15 14
7 8 10 11 12 12 13 13 13 13 13 13 13 13 15 15 15 15 16 16 17 16 15 15 16 16 16 16 16 16 16 16 16 15 15 15 15 15 15 15 15 15 15 15
7 8 10 10 11 11 12 13 13 13 12 13 13 13 14 15 15 14 15 15 16 16 15 15 15 16 16 16 17 17 16 16 16 16 15 15 15 15 15 15 15 15 15 14
7 8 9 10 11 12 11 13 13 13 12 12 13 13 15 15 15 15 15 15 15 15 15 15 15 16 16 16 16 16 16 16 16 16 15 15 15 15 15 15 14 14 14 14
7 8 9 10 11 12 12 12 13 13 13 13 13 13 15 15 15 15 16 15 15 15 14 14 15 16 16 16 16 16 16 16 15 15 15 15 15 14 14 14 14 14 13 13
7 8 9 10 11 11 11 12 12 12 13 11 13 13 14 15 15 16 16 15 15 15 14 14 14 15 15 15 15 15 15 15 15 14 14 14 14 14 13 13 13 13 13 12
7 8 8 9 10 10 11 12 11 10 10 12 12 12 14 15 15 15 15 15 14 14 14 14 14 14 14 14 14 14 14 14 14 14 13 13 13 13 12 12 12 12 12 11
7 7 8 9 10 10 11 12 12 11 11 12 11 12 15 15 13 12 12 12 12 13 13 13 13 13 14 14 13 13 13 13 13 12 12 12 12 12 11 11 11 11 11 11
9 8 8 8 9 11 11 11 11 12 11 12 12 13 14 14 14 13 13 12 12 12 12 11 11 12 12 12 12 12 12 12 11 11 11 11 11 11 11 10 10 10 10 9
9 8 8 8 9 9 11 11 11 10 10 12 12 12 14 15 15 15 14 13 12 10 10 10 10 10 10 11 11 11 11 11 11 10 10 10 10 10 10 9 9 9 8 8
9 8 7 8 9 10 10 10 11 11 11 12 12 14 14 14 14 14 13 12 11 10 9 8 8 9 10 10 10 10 10 10 10 10 10 9 9 9 8 8 8 7 7 7
9 9 7 8 8 9 10 11 11 11 9 11 12 13 14 13 12 11 11 11 10 10 9 8 8 9 10 10 10 10 10 10 9 9 9 9 8 8 7 7 6 6 6 6
9 9 7 7 8 8 9 10 10 11 10 10 11 13 13 12 12 11 11 11 10 10 9 9 9 9 10 10 10 10 9 9 9 9 8 8 7 6 6 5 5 5 5 5
9 9 9 10 10 9 9 9 9 9 9 10 11 13 14 13 13 13 12 11 10 10 10 9 9 9 10 10 10 9 9 9 8 8 7 7 6 5 4 4 4 4 4 4
9 8 7 8 8 8 9 9 9 9 10 10 12 12 13 14 14 13 12 11 10 9 9 9 10 10 10 10 10 9 9 8 8 7 6 5 4 4 3 3 3 3 3 3
8 7 7 7 8 8 8 9 9 9 10 10 10 11 13 12 11 11 11 10 10 10 10 10 10 10 10 10 10 9 9 8 7 6 5 4 3 2 2 2 2 2 2 2
7 7 7 8 7 8 9 9 9 9 9 10 10 11 12 11 11 10 10 10 10 10 10 10 10 11 11 11 10 9 8 7 6 5 4 3 2 2 1 1 1 1 1 2
8 7 7 7 7 7 9 8 8 8 9 9 9 10 10 9 9 9 9 9 9 9 9 10 10 11 11 10 10 9 8 7 6 5 3 2 2 1 0 0 0 1 1 1
8 8 7 7 8 8 9 8 8 8 8 8 8 9 8 8 8 9 9 8 8 9 9 10 10 10 10 10 9 9 8 7 5 4 3 2 1 1 0 -0 0 0 1 1
7 8 8 7 7 8 9 8 7 8 8 8 7 7 7 7 9 10 8 8 8 9 9 9 10 10 10 10 9 8 7 6 5 4 3 2 1 0 -0 -0 -0 0 0 0
6 7 7 7 7 8 8 7 7 8 8 6 6 6 6 6 7 7 6 7 8 8 9 9 9 10 10 9 9 8 7 6 5 4 3 2 1 0 0 -0 -0 0 0 0
7 7 7 7 7 7 7 7 7 6 5 5 5 5 4 5 5 6 6 7 8 8 8 9 9 9 9 8 8 8 7 6 5 4 3 2 1 1 0 0 0 0 0 0
6 6 7 7 7 6 5 5 4 3 3 4 3 4 4 4 5 6 6 7 7 8 8 8 8 8 8 8 7 7 6 5 5 4 3 2 2 1 1 0 0 0 0 0
4 3 4 5 6 5 4 4 3 2 2 3 3 3 3 4 4 5 6 6 7 7 7 7 7 7 7 7 6 6 5 5 4 4 3 3 2 1 1 1 1 1 1 1
3 3 4 4 4 4 3 3 2 2 2 2 2 2 3 3 4 4 5 6 6 6 6 7 7 6 6 6 6 5 5 4 4 4 3 3 2 2 2 1 1 1 1 1
2 2 2 3 2 2 2 2 1 1 1 1 1 2 2 2 3 4 4 5 5 6 6 6 6 6 6 5 5 5 4 4 4 3 3 3 2 2 2 2 1 1 1 1
Wind_Speed
7 7 13 18 17 9 15 15 15 12 11 14 16 15 13 10 10 15 17 17 13 10 5 2 2 3 5 7 8 9 9 9 8 6 6 6 6 6 6 6 7 8 8 9
6 8 11 13 12 9 14 15 14 10 11 12 13 15 14 13 13 14 16 18 17 13 9 5 4 4 5 6 7 7 8 8 8 7 5 4 4 4 4 3 4 4 6 7
6 7 10 13 14 13 14 16 14 11 9 8 7 10 16 16 15 14 15 16 18 15 11 8 6 5 5 5 6 5 6 6 6 6 5 4 3 3 3 3 2 2 4 5
3 6 11 14 13 13 11 11 12 14 12 7 10 7 11 15 16 17 17 18 18 16 11 9 8 7 6 5 4 5 5 5 4 5 5 6 5 5 3 1 1 1 2 3
4 8 12 14 12 10 7 9 10 11 9 6 9 7 6 9 15 18 18 19 18 16 12 10 9 8 7 6 6 6 6 6 5 4 4 4 3 2 1 1 2 2 1 2
4 3 4 6 6 7 10 11 9 6 6 7 10 10 7 7 12 13 16 18 18 15 13 11 9 9 8 8 7 7 7 7 6 5 4 3 3 2 2 2 2 2 1 1
5 4 2 3 8 6 10 14 7 7 8 7 6 8 8 5 7 9 10 11 11 11 11 11 12 12 11 10 9 8 8 7 6 5 5 3 2 1 1 2 2 2 2 2
6 6 3 3 6 8 11 10 5 7 8 5 5 8 6 5 5 6 7 7 7 9 10 12 13 13 12 11 10 9 8 7 5 4 4 3 1 0 1 2 2 2 2 2
5 5 3 1 0 7 8 5 1 2 3 4 6 4 7 6 6 5 5 6 7 8 9 11 12 13 12 12 10 9 8 7 5 4 3 2 1 1 1 2 2 2 2 2
3 6 4 3 3 2 2 6 4 3 5 5 4 5 4 4 2 2 3 4 5 5 7 10 11 12 11 10 9 8 7 6 5 3 2 1 0 1 2 2 2 1 1 1
3 5 6 5 8 10 6 6 4 4 3 3 3 3 2 2 0 3 5 5 4 4 7 9 11 11 10 10 9 8 7 6 4 3 2 1 0 1 1 1 1 0 0 1
2 4 5 3 1 1 5 8 9 6 4 4 3 2 2 3 3 5 5 4 2 4 7 9 11 11 10 10 9 8 7 6 4 3 2 1 1 1 1 1 1 1 1 2
4 5 6 4 3 4 6 6 8 5 3 6 6 5 2 3 4 4 4 4 2 5 8 10 11 11 11 10 9 8 7 6 5 4 3 3 2 2 2 2 2 2 3 3
2 2 3 5 3 6 8 10 10 8 7 10 13 13 9 9 10 10 9 8 6 7 10 12 12 12 11 10 10 9 8 6 6 5 4 4 3 3 3 3 3 3 3 4
1 2 1 1 1 3 6 10 13 14 15 13 14 16 17 16 16 15 13 10 9 9 11 13 14 13 12 11 10 9 8 8 7 6 5 5 4 4 4 4 4 4 4 4
1 2 2 1 1 3 5 10 13 15 16 18 19 20 16 14 13 13 14 13 12 13 14 15 15 14 14 13 12 11 10 9 8 7 6 5 5 5 5 5 5 5 5 4
3 3 2 2 0 2 7 8 11 9 10 11 15 15 13 13 13 14 14 14 14 14 14 15 16 16 15 14 13 13 11 10 9 8 7 7 6 6 6 6 6 5 5 5
4 3 2 1 2 5 1 1 3 7 7 8 11 12 13 14 15 15 13 13 14 14 13 14 14 14 13 12 12 11 11 11 10 9 8 8 7 7 7 6 6 6 5 5
2 3 2 2 3 5 2 0 2 3 1 2 5 9 11 13 11 9 7 9 13 13 12 11 11 11 12 13 13 13 12 11 10 10 9 8 8 8 8 7 7 6 5 5
2 2 3 3 3 3 1 2 1 3 3 5 7 10 12 11 8 8 11 12 11 9 7 6 7 9 12 13 14 13 13 12 11 10 9 9 8 8 8 8 7 5 5 5
3 3 4 5 5 4 3 3 2 3 2 8 9 10 11 8 9 13 15 12 9 6 3 3 7 9 10 13 14 13 12 12 11 10 9 9 9 8 8 8 6 6 6 5
4 4 4 4 5 3 4 1 0 4 7 8 10 10 11 12 13 12 11 9 6 4 0 3 6 7 8 12 13 12 12 10 10 10 10 9 9 8 7 8 7 7 7 6
1 2 2 3 1 3 3 2 2 5 8 9 10 12 12 12 11 11 9 8 5 3 1 3 5 6 8 10 11 11 11 11 11 11 11 10 9 8 8 9 8 7 7 6
1 3 2 3 2 5 4 2 5 8 9 11 11 12 11 12 12 11 9 7 5 3 2 3 5 6 8 10 10 9 10 12 12 12 11 10 10 9 9 8 8 8 8 7
3 3 3 4 5 7 3 7 12 13 12 12 12 11 11 11 11 10 9 7 6 4 3 4 6 7 8 9 10 10 11 12 12 12 11 10 10 10 9 9 9 9 9 9
1 2 3 4 6 8 11 14 15 15 14 14 14 13 12 10 11 10 9 7 6 5 4 5 6 7 7 9 10 11 12 13 13 11 11 10 9 9 9 9 8 12 11 12
Wind_Direction
164 183 183 184 191 202 184 185 186 186 175 197 215 229 237 240 240 243 242 240 243 255 263 240 220 204 196 196 196 197 197 199 196 195 204 212 221 225 227 232 242 247 249 249
157 190 184 176 176 171 174 181 177 169 176 195 216 231 236 237 235 237 238 237 239 241 240 231 210 197 198 189 188 190 193 194 196 200 201 210 213 222 229 228 239 253 258 257
167 162 167 169 169 172 181 184 175 163 162 192 211 236 234 234 235 238 238 237 238 236 239 234 213 194 188 179 176 171 174 182 188 191 185 180 190 203 208 220 239 279 284 274
142 149 167 170 174 174 175 182 169 161 164 187 203 234 226 224 226 230 233 234 233 231 235 231 210 192 178 163 148 146 149 150 156 174 190 201 212 222 224 239 260 301 320 308
139 162 169 172 172 172 158 164 169 174 181 187 204 237 243 216 227 229 229 231 231 232 228 224 210 188 166 154 145 138 132 123 121 132 153 179 193 202 195 228 256 272 296 326
95 124 163 165 146 142 134 137 132 160 198 224 215 225 255 224 232 232 228 229 230 233 231 221 199 175 164 155 148 144 133 118 111 110 113 128 147 170 205 239 260 270 273 297
112 113 97 150 138 136 163 155 151 177 205 225 181 221 251 256 250 247 243 234 231 234 231 214 191 182 171 164 157 152 139 124 115 107 100 96 100 148 242 263 270 275 276 289
137 147 151 164 174 166 180 187 189 187 197 188 183 229 250 277 281 271 263 254 247 239 227 211 197 186 174 165 160 155 144 131 122 113 101 89 75 330 285 283 281 280 290 306
144 131 120 127 182 165 173 192 8 88 131 194 204 240 274 259 260 261 260 254 249 242 226 209 192 182 174 166 163 157 148 139 132 122 114 100 63 327 293 288 280 280 294 308
126 126 142 142 144 58 205 164 164 168 180 213 207 225 223 193 218 294 313 298 277 243 217 199 185 177 170 162 157 156 153 145 139 136 126 107 355 311 291 277 275 288 316 322
121 128 142 167 194 186 162 182 197 187 231 234 214 187 186 192 314 321 327 325 299 240 203 189 180 173 165 161 161 160 159 155 154 152 150 178 253 281 263 248 258 318 23 30
125 129 134 146 76 274 216 205 200 204 204 226 242 222 139 230 278 293 308 317 279 210 191 183 177 171 169 171 172 172 169 168 164 160 168 184 215 225 215 182 130 102 89 77
149 141 134 148 192 201 214 209 215 225 210 214 228 237 151 233 264 274 289 298 235 194 186 183 182 183 182 180 180 180 178 175 170 172 180 188 194 196 187 158 131 116 107 98
145 162 204 188 169 178 198 207 206 204 224 239 241 251 248 258 272 279 288 289 261 216 200 195 193 193 191 188 186 184 184 181 178 180 188 195 193 185 170 149 136 124 116 107
152 158 137 87 111 172 210 217 214 219 234 246 255 258 263 271 281 286 288 281 261 233 215 209 205 200 194 191 190 187 186 185 184 187 192 193 183 172 161 152 140 128 117 108
114 136 137 145 160 216 242 237 231 235 241 249 261 268 275 283 285 281 277 272 258 243 229 219 212 206 201 197 192 187 186 184 186 193 193 183 179 174 167 157 145 135 124 117
161 158 166 183 156 259 256 244 229 228 232 243 256 271 296 297 289 283 280 273 262 253 240 225 216 210 205 199 190 187 183 180 186 192 189 184 182 177 168 159 151 143 134 126
163 156 145 160 202 235 42 57 242 236 258 260 270 289 300 300 297 288 280 277 269 259 247 233 222 212 203 191 184 178 175 179 186 190 189 186 183 177 167 162 156 147 140 135
180 168 165 200 244 272 306 328 212 213 258 357 305 310 317 319 303 285 290 286 275 268 255 241 222 204 188 180 175 170 174 180 187 190 189 187 182 175 170 167 160 152 144 139
124 179 195 196 242 246 65 23 281 216 193 25 341 329 328 327 315 323 340 320 300 285 264 233 196 178 175 172 168 171 177 183 191 190 187 184 181 178 175 168 159 152 150 150
170 188 212 222 241 266 352 326 206 236 356 345 333 328 327 315 296 307 316 318 316 308 270 184 168 171 171 166 168 175 180 189 187 180 178 179 180 178 171 162 158 155 160 164
209 206 207 214 227 244 24 47 28 342 334 324 326 326 321 310 307 310 315 320 325 330 342 160 162 164 163 168 173 179 185 182 174 173 176 179 178 174 169 165 163 166 173 180
240 282 277 246 281 33 13 37 9 342 323 322 321 321 319 315 315 318 317 319 322 319 237 178 169 162 168 178 183 185 182 174 173 175 180 181 179 178 176 177 176 178 188 197
42 357 292 282 291 337 326 358 351 338 322 315 313 314 314 312 313 314 312 310 308 290 237 198 184 182 185 189 194 191 176 174 176 182 184 184 185 185 185 188 190 193 198 204
341 341 315 285 315 330 331 334 332 326 321 317 316 314 311 309 307 308 305 301 296 280 244 215 208 208 203 194 197 191 181 178 183 187 188 190 193 193 196 201 205 207 212 211
20 346 319 301 327 311 300 312 318 316 315 317 313 311 312 309 304 305 301 296 287 275 252 235 228 223 212 201 200 195 188 187 188 191 193 195 196 198 201 205 215 224 224 224
Height
1495 1496 1494 1492 1494 1493 1496 1501 1506 1510 1515 1519 1520 1519 1520 1521 1522 1521 1522 1524 1527 1530 1532 1533 1534 1536 1538 1541 1543 1545 1547 1549 1551 1553 1554 1556 1557 1558 1558 1559 1560 1560 1560 1561
1496 1494 1493 1494 1497 1498 1499 1502 1505 1511 1515 1518 1518 1518 1517 1517 1517 1517 1518 1520 1523 1526 1528 1529 1531 1533 1536 1538 1540 1543 1545 1547 1549 1550 1552 1553 1554 1554 1555 1556 1556 1556 1556 1556
1492 1493 1495 1497 1499 1500 1500 1501 1503 1509 1515 1517 1518 1517 1513 1512 1513 1514 1515 1516 1519 1522 1524 1526 1528 1530 1533 1535 1537 1540 1542 1544 1546 1547 1548 1549 1550 1551 1551 1551 1551 1552 1552 1551
1494 1495 1496 1497 1499 1499 1502 1501 1504 1508 1513 1515 1516 1512 1504 1504 1506 1508 1511 1512 1515 1518 1521 1523 1525 1528 1529 1532 1534 1536 1539 1541 1542 1544 1545 1546 1546 1547 1547 1547 1547 1546 1546 1546
1495 1495 1496 1498 1499 1499 1502 1505 1506 1507 1509 1513 1514 1512 1499 1500 1501 1502 1505 1508 1511 1514 1517 1519 1521 1524 1526 1528 1531 1533 1535 1537 1538 1540 1541 1542 1542 1542 1542 1542 1542 1541 1541 1540
1496 1498 1499 1499 1501 1502 1505 1507 1510 1510 1511 1517 1510 1511 1501 1496 1496 1496 1500 1503 1506 1510 1513 1515 1517 1520 1522 1525 1527 1529 1531 1533 1535 1536 1537 1538 1538 1538 1538 1537 1537 1537 1536 1535
1499 1500 1501 1501 1502 1506 1504 1505 1514 1518 1518 1511 1509 1509 1499 1493 1495 1496 1498 1500 1503 1505 1508 1510 1512 1515 1518 1521 1523 1526 1528 1530 1531 1532 1533 1533 1534 1534 1533 1533 1533 1532 1531 1530
1497 1501 1502 1502 1500 1501 1502 1501 1504 1506 1508 1506 1513 1506 1495 1494 1496 1497 1498 1499 1500 1501 1503 1505 1507 1510 1513 1516 1520 1522 1524 1526 1528 1529 1529 1529 1529 1529 1529 1529 1528 1527 1526 1526
1491 1499 1503 1504 1503 1501 1503 1504 1505 1502 1505 1506 1502 1501 1497 1493 1493 1495 1495 1496 1497 1498 1499 1500 1502 1505 1508 1512 1516 1519 1521 1523 1524 1525 1526 1526 1525 1525 1524 1524 1523 1522 1521 1521
1490 1498 1502 1504 1504 1505 1503 1503 1506 1509 1508 1502 1499 1499 1492 1490 1490 1491 1493 1494 1494 1494 1495 1497 1498 1501 1505 1509 1513 1516 1518 1520 1521 1522 1522 1522 1521 1521 1520 1519 1518 1517 1517 1516
1492 1496 1504 1503 1501 1500 1506 1506 1503 1502 1502 1501 1498 1494 1489 1490 1491 1492 1492 1492 1492 1492 1493 1494 1496 1499 1503 1507 1510 1513 1515 1517 1518 1518 1518 1517 1516 1516 1515 1514 1513 1513 1513 1512
1493 1494 1501 1504 1506 1504 1502 1500 1500 1503 1509 1504 1498 1496 1490 1492 1493 1493 1493 1492 1491 1491 1491 1492 1494 1497 1501 1505 1508 1510 1512 1513 1514 1514 1513 1512 1512 1511 1510 1509 1509 1509 1509 1509
1493 1494 1500 1505 1508 1507 1503 1502 1501 1501 1503 1504 1502 1496 1490 1492 1492 1492 1492 1491 1490 1490 1490 1491 1493 1496 1499 1502 1505 1507 1509 1510 1510 1510 1509 1508 1507 1506 1506 1505 1505 1505 1505 1505
1494 1493 1494 1492 1491 1495 1499 1500 1501 1504 1504 1498 1495 1491 1488 1489 1489 1489 1489 1489 1489 1488 1488 1489 1491 1493 1496 1499 1502 1504 1505 1506 1506 1505 1505 1504 1503 1502 1502 1502 1502 1502 1502 1502
1494 1495 1497 1496 1496 1496 1496 1495 1497 1500 1496 1495 1488 1488 1486 1487 1487 1487 1487 1487 1487 1486 1486 1486 1488 1490 1493 1496 1498 1500 1501 1502 1502 1501 1500 1500 1499 1498 1498 1498 1499 1499 1500 1500
1495 1497 1499 1499 1498 1497 1497 1494 1494 1494 1493 1491 1490 1487 1485 1486 1487 1486 1485 1483 1482 1482 1482 1482 1484 1486 1488 1491 1493 1495 1497 1497 1497 1497 1496 1495 1495 1495 1495 1496 1496 1497 1497 1498
1496 1497 1498 1495 1498 1496 1491 1488 1489 1490 1489 1489 1487 1484 1484 1484 1484 1482 1480 1479 1477 1476 1477 1477 1479 1481 1484 1486 1489 1491 1492 1493 1493 1492 1492 1491 1492 1492 1492 1493 1494 1495 1495 1496
1494 1495 1497 1497 1498 1498 1488 1490 1490 1489 1488 1489 1488 1486 1485 1484 1481 1477 1475 1474 1472 1471 1471 1472 1474 1476 1479 1482 1484 1486 1487 1488 1488 1488 1488 1488 1488 1489 1490 1491 1492 1493 1494 1494
1495 1494 1495 1495 1492 1487 1487 1489 1489 1489 1487 1489 1488 1486 1484 1481 1476 1471 1470 1469 1467 1466 1466 1467 1469 1471 1474 1476 1479 1481 1482 1483 1483 1483 1484 1484 1485 1486 1488 1489 1490 1491 1492 1493
1497 1495 1494 1495 1492 1487 1487 1489 1489 1490 1485 1489 1488 1486 1483 1480 1474 1469 1468 1465 1463 1461 1461 1462 1464 1466 1469 1472 1474 1476 1477 1478 1479 1480 1480 1481 1482 1484 1485 1487 1488 1490 1491 1492
1495 1495 1495 1493 1491 1485 1489 1490 1490 1488 1487 1490 1488 1485 1483 1480 1476 1472 1466 1463 1460 1458 1458 1459 1460 1462 1465 1467 1470 1471 1473 1474 1476 1477 1477 1478 1480 1481 1483 1485 1487 1488 1489 1490
1491 1491 1492 1491 1491 1490 1491 1490 1491 1491 1491 1489 1486 1484 1481 1477 1473 1468 1465 1461 1459 1457 1456 1457 1458 1460 1462 1464 1466 1468 1470 1471 1473 1473 1475 1476 1477 1479 1481 1483 1484 1486 1487 1489
1495 1495 1492 1491 1491 1493 1493 1493 1493 1492 1490 1487 1485 1481 1478 1474 1471 1467 1464 1461 1459 1458 1457 1457 1457 1459 1460 1462 1463 1465 1467 1468 1469 1471 1472 1473 1475 1477 1478 1480 1482 1483 1485 1486
1499 1500 1497 1494 1492 1493 1493 1492 1491 1490 1488 1485 1482 1479 1476 1472 1469 1466 1463 1461 1459 1458 1457 1456 1457 1457 1458 1460 1461 1462 1464 1465 1467 1468 1469 1471 1472 1474 1475 1477 1479 1480 1482 1483
1502 1501 1498 1495 1494 1493 1491 1492 1490 1487 1484 1481 1478 1476 1473 1470 1467 1464 1462 1460 1458 1457 1456 1456 1455 1456 1457 1457 1458 1459 1460 1462 1463 1465 1466 1467 1469 1471 1472 1474 1476 1477 1479 1480
1504 1504 1501 1497 1497 1497 1492 1490 1487 1484 1480 1477 1474 1471 1469 1467 1464 1461 1459 1457 1456 1455 1454 1453 1453 1453 1453 1454 1454 1456 1457 1458 1459 1461 1462 1464 1465 1467 1469 1470 1472 1473 1475 1476